DW7873 Weather Reports


Display with metric or nautical units.
time (UTC)temp
F
wind
direction
speed
MPH
gust
MPH
rain 1hr
in
rain 24hr
in
rain mn
in
humidity
%
barometer
mb
20260508000041 56 352 1.0 4.0 0.00 0.05 0.04 35 1005.9
20260507235517 56 229 1.0 4.0 0.00 0.11 0.04 35 1005.9
20260507235016 57 0 0.0 4.0 0.00 0.11 0.04 35 1005.9
20260507234534 57 0 1.0 7.0 0.00 0.11 0.04 33 1005.8
20260507234016 57 329 2.0 7.0 0.00 0.11 0.04 34 1005.9
20260507233518 57 268 3.0 7.0 0.00 0.11 0.04 33 1005.8
20260507233036 57 329 1.0 6.0 0.00 0.11 0.04 34 1005.8
20260507232521 57 0 1.0 6.0 0.00 0.11 0.04 34 1005.7
20260507232019 58 315 1.0 6.0 0.00 0.11 0.04 33 1005.7
20260507231532 58 264 1.0 6.0 0.00 0.11 0.04 33 1005.6
20260507231021 58 325 1.0 5.0 0.00 0.11 0.04 34 1005.6
20260507230516 58 0 1.0 6.0 0.00 0.11 0.04 32 1005.5
20260507230038 59 290 1.0 7.0 0.00 0.11 0.04 33 1005.4
20260507225521 59 329 2.0 7.0 0.00 0.16 0.04 32 1005.4
20260507225020 59 298 2.0 10.0 0.00 0.16 0.04 32 1005.5
20260507224547 60 0 2.0 10.0 0.00 0.16 0.04 31 1005.4
20260507224018 60 302 1.0 6.0 0.00 0.16 0.04 31 1005.4
20260507223519 59 232 2.0 8.0 0.00 0.16 0.04 31 1005.3
20260507223034 59 300 1.0 8.0 0.00 0.16 0.04 32 1005.2
20260507222516 60 205 3.0 8.0 0.00 0.16 0.04 32 1005.3
20260507222017 61 351 3.0 8.0 0.00 0.16 0.04 30 1005.1
20260507221531 61 69 1.0 7.0 0.00 0.16 0.04 33 1005.1
20260507221020 61 277 1.0 7.0 0.00 0.16 0.04 32 1005.1
20260507220517 61 327 1.0 8.0 0.00 0.16 0.04 31 1005.1
20260507220034 61 315 3.0 9.0 0.00 0.16 0.04 30 1005.0
20260507215518 61 346 2.0 9.0 0.00 0.18 0.04 30 1005.0
20260507215015 62 277 4.0 9.0 0.00 0.18 0.04 30 1004.9
20260507214532 62 320 1.0 9.0 0.00 0.18 0.04 32 1004.8
20260507214016 62 0 2.0 9.0 0.00 0.18 0.04 31 1004.9
20260507213516 62 323 3.0 7.0 0.00 0.18 0.04 31 1004.9
20260507213034 62 296 1.0 12.0 0.00 0.18 0.04 33 1004.7
20260507212515 62 246 2.0 12.0 0.00 0.18 0.04 32 1004.7
20260507212016 62 207 4.0 12.0 0.00 0.18 0.04 30 1004.7
20260507211534 63 277 2.0 8.0 0.00 0.18 0.04 30 1004.8
20260507211015 63 0 3.0 8.0 0.00 0.18 0.04 31 1004.8
20260507210518 63 5 2.0 7.0 0.00 0.18 0.04 31 1004.8
20260507210038 63 279 1.0 7.0 0.00 0.18 0.04 31 1004.7
20260507205515 63 340 2.0 8.0 0.00 0.25 0.04 33 1004.8
20260507205017 63 320 3.0 8.0 0.00 0.25 0.04 31 1004.8
20260507204536 63 330 2.0 12.0 0.00 0.25 0.04 33 1004.8
20260507204016 63 271 3.0 13.0 0.00 0.25 0.04 31 1004.7
20260507203516 63 320 5.0 13.0 0.00 0.25 0.04 30 1004.7
20260507203032 64 343 3.0 13.0 0.00 0.25 0.04 30 1004.5
20260507202515 63 310 4.0 13.0 0.00 0.25 0.04 31 1004.6
20260507202017 63 338 2.0 13.0 0.00 0.25 0.04 30 1004.7
20260507201533 63 303 2.0 9.0 0.00 0.25 0.04 31 1004.6
20260507201018 63 331 3.0 11.0 0.00 0.25 0.04 32 1004.7
20260507200517 63 5 3.0 11.0 0.00 0.25 0.04 30 1004.8
20260507200035 64 300 3.0 11.0 0.00 0.25 0.04 30 1004.8
20260507195516 63 324 3.0 10.0 0.00 0.28 0.04 30 1004.9
20260507195017 63 286 2.0 12.0 0.00 0.28 0.04 31 1004.9
20260507194538 63 319 3.0 12.0 0.00 0.28 0.04 29 1005.0
20260507194018 63 322 2.0 10.0 0.00 0.28 0.04 29 1004.9
20260507193516 63 348 2.0 12.0 0.00 0.28 0.04 30 1005.1
20260507193035 63 247 3.0 12.0 0.00 0.28 0.04 31 1005.0
20260507192517 63 292 4.0 12.0 0.00 0.28 0.04 29 1005.2
20260507192017 63 217 3.0 12.0 0.00 0.28 0.04 31 1005.3
20260507191535 63 352 3.0 8.0 0.00 0.28 0.04 30 1005.2
20260507191016 63 346 2.0 9.0 0.00 0.28 0.04 29 1005.3
20260507190518 63 267 2.0 11.0 0.00 0.28 0.04 33 1005.4
20260507190036 63 340 2.0 11.0 0.00 0.28 0.04 32 1005.5
20260507185517 63 335 3.0 11.0 0.00 0.28 0.04 29 1005.5
20260507185017 64 281 3.0 8.0 0.00 0.28 0.04 29 1005.5
20260507184533 63 335 3.0 8.0 0.00 0.28 0.04 29 1005.4
20260507184018 64 323 2.0 12.0 0.00 0.28 0.04 30 1005.4
20260507183517 63 336 2.0 12.0 0.00 0.28 0.04 30 1005.5
20260507183031 63 276 4.0 12.0 0.00 0.28 0.04 30 1005.4
20260507182516 63 317 3.0 12.0 0.00 0.28 0.04 31 1005.5
20260507182017 63 254 4.0 12.0 0.00 0.28 0.04 30 1005.6
20260507181534 63 340 3.0 11.0 0.00 0.28 0.04 30 1005.7
20260507181018 64 317 2.0 8.0 0.00 0.28 0.04 32 1005.5
20260507180517 64 111 3.0 9.0 0.00 0.28 0.04 31 1005.6
20260507180030 63 248 2.0 9.0 0.00 0.28 0.04 32 1005.6
20260507175520 64 275 2.0 10.0 0.00 0.28 0.04 32 1005.7
20260507175018 62 290 2.0 10.0 0.00 0.28 0.04 35 1005.6
20260507174559 63 278 3.0 10.0 0.00 0.28 0.04 32 1005.7
20260507174016 63 231 3.0 10.0 0.00 0.28 0.04 32 1005.7
20260507173517 63 293 4.0 10.0 0.00 0.28 0.04 32 1005.6
20260507173036 63 286 2.0 9.0 0.00 0.28 0.04 34 1005.5
20260507172517 63 314 2.0 11.0 0.00 0.28 0.04 36 1005.6
20260507172017 63 360 3.0 11.0 0.00 0.28 0.04 34 1005.6
20260507171533 63 340 3.0 8.0 0.00 0.28 0.04 35 1005.7
20260507171018 63 31 2.0 10.0 0.00 0.28 0.04 40 1005.8
20260507170517 62 352 1.0 10.0 0.00 0.28 0.04 38 1005.9
20260507170031 62 258 2.0 9.0 0.00 0.28 0.04 38 1005.9
20260507165517 62 24 2.0 9.0 0.00 0.28 0.04 36 1006.2
20260507165018 63 273 2.0 8.0 0.00 0.28 0.04 38 1006.2
20260507164534 62 0 2.0 11.0 0.00 0.28 0.04 36 1006.2
20260507164018 62 352 3.0 14.0 0.00 0.28 0.04 41 1006.2
20260507163517 62 269 2.0 14.0 0.00 0.28 0.04 40 1006.4
20260507163035 62 296 4.0 14.0 0.00 0.28 0.04 39 1006.4
20260507162515 62 205 2.0 8.0 0.00 0.28 0.04 45 1006.5
20260507162021 61 16 2.0 8.0 0.00 0.28 0.04 46 1006.4
20260507161535 62 297 2.0 9.0 0.00 0.28 0.04 49 1006.6
20260507161017 62 338 4.0 9.0 0.00 0.28 0.04 50 1006.5
20260507160516 61 291 2.0 9.0 0.00 0.28 0.04 50 1006.6
20260507160038 61 285 2.0 12.0 0.00 0.28 0.04 51 1006.6
20260507155517 61 287 3.0 12.0 0.00 0.28 0.04 49 1006.6
20260507155016 61 324 3.0 10.0 0.00 0.28 0.04 50 1006.6
20260507154534 60 315 3.0 9.0 0.00 0.28 0.04 50 1006.6
20260507154017 60 352 3.0 9.0 0.00 0.28 0.04 50 1006.6
20260507153518 59 347 2.0 6.0 0.00 0.28 0.04 53 1006.6
20260507153036 59 278 2.0 9.0 0.00 0.28 0.04 52 1006.8
20260507152519 59 303 1.0 9.0 0.00 0.28 0.04 56 1006.8
20260507152018 59 300 3.0 9.0 0.00 0.28 0.04 53 1007.0
20260507151532 59 273 3.0 9.0 0.00 0.28 0.04 53 1007.0
20260507151018 59 302 2.0 9.0 0.00 0.28 0.04 53 1007.0
20260507150518 59 274 1.0 6.0 0.00 0.28 0.04 51 1007.1
20260507150033 60 273 1.0 7.0 0.00 0.28 0.04 53 1007.1
20260507145518 60 199 3.0 7.0 0.00 0.28 0.04 50 1007.1
20260507145017 59 250 1.0 6.0 0.00 0.28 0.04 54 1007.2
20260507144535 59 5 3.0 6.0 0.00 0.28 0.04 52 1007.3
20260507144018 59 332 3.0 7.0 0.00 0.28 0.04 50 1007.4
20260507143515 60 178 2.0 10.0 0.00 0.28 0.04 48 1007.3
20260507143033 61 289 3.0 11.0 0.00 0.28 0.04 48 1007.3
20260507142520 60 113 2.0 11.0 0.00 0.28 0.04 49 1007.2
20260507142017 60 322 3.0 11.0 0.00 0.28 0.04 50 1007.3
20260507141536 60 317 2.0 7.0 0.00 0.28 0.04 49 1007.3
20260507141018 60 302 2.0 7.0 0.00 0.28 0.04 52 1007.3
20260507140517 60 198 2.0 6.0 0.00 0.28 0.04 52 1007.3
20260507140047 60 336 2.0 6.0 0.00 0.28 0.04 53 1007.3
20260507135520 59 0 1.0 4.0 0.00 0.28 0.04 53 1007.2
20260507135021 59 276 1.0 4.0 0.00 0.28 0.04 55 1007.1
20260507134535 59 306 1.0 4.0 0.00 0.28 0.04 57 1007.1
20260507134023 58 360 1.0 3.0 0.00 0.28 0.04 57 1007.2
20260507133522 58 263 1.0 4.0 0.00 0.28 0.04 59 1007.3
20260507133034 57 340 1.0 5.0 0.00 0.28 0.04 59 1007.3
20260507132519 57 245 1.0 6.0 0.00 0.28 0.04 61 1007.5
20260507132020 56 209 2.0 6.0 0.00 0.28 0.04 61 1007.6
20260507131541 56 268 2.0 7.0 0.00 0.28 0.04 62 1007.6
20260507131018 56 349 1.0 7.0 0.00 0.28 0.04 63 1007.7
20260507130517 56 46 2.0 7.0 0.00 0.28 0.04 64 1007.6
20260507130034 55 308 1.0 6.0 0.00 0.28 0.04 65 1007.7
20260507125517 55 98 1.0 6.0 0.00 0.28 0.04 66 1007.7
20260507125019 54 18 1.0 7.0 0.00 0.28 0.04 67 1007.8
20260507124534 54 360 2.0 7.0 0.00 0.28 0.04 67 1007.7
20260507124021 54 338 2.0 7.0 0.00 0.28 0.04 69 1007.8
20260507123519 53 281 3.0 7.0 0.00 0.28 0.04 71 1007.7
20260507123036 53 305 2.0 6.0 0.00 0.28 0.04 74 1007.7
20260507122517 52 295 1.0 5.0 0.00 0.28 0.04 74 1007.8
20260507122018 52 312 2.0 5.0 0.00 0.28 0.04 75 1007.8
20260507121535 51 277 1.0 5.0 0.00 0.28 0.04 76 1007.7
20260507121018 51 306 1.0 5.0 0.00 0.28 0.04 77 1007.9
20260507120518 51 306 1.0 6.0 0.00 0.28 0.04 78 1007.9
20260507120035 51 333 1.0 6.0 0.00 0.28 0.04 80 1007.8
20260507115523 50 0 1.0 3.0 0.00 0.28 0.04 80 1007.9
20260507115023 50 326 1.0 4.0 0.00 0.28 0.04 80 1007.8
20260507114535 50 319 1.0 6.0 0.00 0.28 0.04 80 1007.6
20260507114019 50 295 1.0 6.0 0.00 0.28 0.04 80 1007.8
20260507113519 50 288 1.0 6.0 0.00 0.28 0.04 80 1007.8
20260507113034 49 0 1.0 3.0 0.00 0.28 0.04 81 1007.7
20260507112517 49 294 1.0 3.0 0.00 0.28 0.04 81 1007.6
20260507112019 49 321 0.0 2.0 0.00 0.28 0.04 81 1007.4
20260507111544 49 311 0.0 2.0 0.00 0.28 0.04 81 1007.4
20260507111017 49 0 0.0 4.0 0.00 0.28 0.04 81 1007.5
20260507110520 49 328 0.0 4.0 0.00 0.28 0.04 81 1007.5
20260507110035 49 290 1.0 4.0 0.00 0.28 0.04 81 1007.7
20260507105516 49 335 1.0 6.0 0.00 0.28 0.04 82 1007.7
20260507105018 49 314 1.0 6.0 0.00 0.28 0.04 82 1007.6
20260507104536 49 278 1.0 6.0 0.00 0.28 0.04 82 1007.4
20260507104017 49 0 0.0 4.0 0.00 0.28 0.04 82 1007.1
20260507103517 49 333 1.0 4.0 0.00 0.28 0.04 83 1007.2
20260507103035 48 280 1.0 6.0 0.00 0.28 0.04 83 1006.9
20260507102518 49 0 1.0 6.0 0.00 0.28 0.04 83 1007.0
20260507102018 49 307 0.0 8.0 0.00 0.28 0.04 84 1006.9
20260507101553 49 323 2.0 8.0 0.00 0.28 0.04 84 1006.9
20260507101019 49 287 1.0 5.0 0.00 0.28 0.04 84 1007.0
20260507100519 49 337 2.0 6.0 0.00 0.28 0.04 84 1007.0
20260507100034 49 290 1.0 6.0 0.00 0.28 0.04 84 1006.8
20260507095517 49 295 1.0 3.0 0.00 0.28 0.04 84 1006.8
20260507095019 49 0 0.0 3.0 0.00 0.28 0.04 84 1007.1
20260507094536 49 296 1.0 3.0 0.00 0.28 0.04 84 1007.3
20260507094018 49 319 1.0 3.0 0.00 0.28 0.04 85 1007.1
20260507093521 49 0 1.0 3.0 0.00 0.28 0.04 85 1006.8
20260507093035 49 316 1.0 5.0 0.00 0.28 0.04 85 1007.3
20260507092523 49 311 1.0 5.0 0.00 0.28 0.04 85 1007.0
20260507092017 50 0 0.0 3.0 0.00 0.28 0.04 85 1007.2
20260507091551 50 0 0.0 4.0 0.00 0.28 0.04 85 1007.2
20260507091018 50 279 1.0 4.0 0.00 0.28 0.04 85 1007.3
20260507090518 50 296 1.0 4.0 0.00 0.28 0.04 85 1007.4
20260507090032 50 0 1.0 4.0 0.00 0.28 0.04 85 1007.2
20260507085517 50 286 0.0 4.0 0.01 0.28 0.04 85 1007.0
20260507085018 50 293 1.0 4.0 0.01 0.28 0.04 84 1007.1
20260507084535 50 0 1.0 4.0 0.02 0.28 0.04 84 1006.8
20260507084019 50 0 1.0 4.0 0.02 0.28 0.04 85 1006.9
20260507083517 50 302 1.0 4.0 0.02 0.28 0.04 85 1007.0
20260507083040 50 0 1.0 4.0 0.02 0.28 0.04 85 1006.9
20260507082518 50 286 1.0 3.0 0.02 0.28 0.04 85 1006.6
20260507082019 51 311 0.0 2.0 0.02 0.28 0.04 84 1006.8
20260507081549 51 0 1.0 2.0 0.02 0.28 0.04 84 1006.9
20260507081017 51 350 0.0 2.0 0.02 0.28 0.04 84 1006.8
20260507080518 51 5 0.0 3.0 0.02 0.28 0.04 84 1006.8
20260507080040 51 33 0.0 4.0 0.01 0.27 0.03 84 1006.9
20260507075519 51 262 1.0 8.0 0.01 0.27 0.03 84 1007.1
20260507075017 51 345 1.0 8.0 0.01 0.27 0.03 84 1006.8
20260507074538 51 273 2.0 7.0 0.00 0.26 0.02 84 1006.9
20260507074019 51 304 1.0 6.0 0.00 0.26 0.02 84 1007.1
20260507073519 51 309 1.0 6.0 0.00 0.26 0.02 84 1006.9
20260507073049 51 296 1.0 3.0 0.00 0.26 0.02 85 1006.7
20260507072519 51 284 1.0 4.0 0.00 0.26 0.02 85 1006.5
20260507072022 51 289 0.0 4.0 0.00 0.26 0.02 85 1006.4
20260507071535 51 344 1.0 4.0 0.00 0.26 0.02 86 1006.3
20260507071018 52 0 0.0 4.0 0.00 0.26 0.02 86 1006.1
20260507070519 52 296 1.0 4.0 0.00 0.26 0.02 86 1006.5
20260507070039 52 277 1.0 4.0 0.00 0.26 0.02 86 1006.1
20260507065517 52 0 1.0 4.0 0.00 0.26 0.02 86 1006.0
20260507065015 52 325 1.0 4.0 0.00 0.26 0.02 87 1006.1
20260507064535 52 327 0.0 2.0 0.00 0.26 0.02 87 1006.2
20260507064018 52 298 0.0 2.0 0.00 0.26 0.02 87 1006.1
20260507063518 52 0 0.0 3.0 0.00 0.26 0.02 87 1006.1
20260507063033 52 304 0.0 3.0 0.00 0.26 0.02 87 1006.2
20260507062520 53 322 0.0 4.0 0.00 0.26 0.02 87 1006.0
20260507062017 53 250 0.0 5.0 0.00 0.26 0.02 87 1005.9
20260507061534 53 288 1.0 5.0 0.00 0.26 0.02 87 1005.9
20260507061017 53 307 1.0 5.0 0.00 0.26 0.02 87 1006.1
20260507060519 53 344 0.0 3.0 0.00 0.26 0.02 87 1005.9
20260507060036 53 0 0.0 2.0 0.00 0.26 0.02 87 1006.0
20260507055517 53 0 0.0 4.0 0.00 0.26 0.02 87 1006.2
20260507055021 53 0 0.0 6.0 0.00 0.26 0.02 87 1006.1
20260507054536 53 292 0.0 7.0 0.00 0.26 0.02 87 1006.3
20260507054020 53 347 1.0 7.0 0.00 0.26 0.02 87 1006.8
20260507053518 53 302 1.0 7.0 0.00 0.26 0.02 87 1006.4
20260507053031 54 281 0.0 4.0 0.00 0.26 0.02 87 1006.2
20260507052518 54 288 1.0 4.0 0.00 0.26 0.02 87 1006.3
20260507052020 54 309 1.0 3.0 0.00 0.26 0.02 87 1006.4
20260507051535 54 5 1.0 4.0 0.00 0.26 0.02 87 1006.3
20260507051017 54 273 1.0 6.0 0.01 0.26 0.02 87 1006.6
20260507050518 55 284 1.0 6.0 0.01 0.26 0.02 88 1006.3
20260507050034 55 272 1.0 9.0 0.02 0.26 0.02 87 1006.3
20260507045519 55 338 1.0 9.0 0.02 0.26 0.02 88 1006.5
20260507045021 56 255 1.0 8.0 0.02 0.26 0.02 88 1006.7
20260507044544 56 302 1.0 8.0 0.02 0.26 0.02 88 1006.3
20260507044020 56 329 1.0 6.0 0.02 0.26 0.02 88 1006.1
20260507043518 57 254 1.0 7.0 0.02 0.26 0.02 88 1006.0
20260507043040 57 313 1.0 7.0 0.02 0.26 0.02 88 1006.1
20260507042520 57 313 1.0 4.0 0.02 0.26 0.02 89 1006.0
20260507042019 57 295 1.0 4.0 0.02 0.26 0.02 88 1006.0
20260507041536 58 288 1.0 4.0 0.02 0.26 0.02 89 1006.2
20260507041018 58 278 1.0 4.0 0.01 0.25 0.01 89 1006.2
20260507040516 58 284 1.0 5.0 0.01 0.25 0.01 89 1006.3
20260507040035 58 292 1.0 6.0 0.00 0.24 0.00 89 1006.1
20260507035518 58 0 1.0 6.0 0.00 0.24 0.24 90 1006.1
20260507035017 58 311 1.0 4.0 0.00 0.24 0.24 90 1005.8
20260507034533 58 286 1.0 5.0 0.00 0.24 0.24 90 1005.7
20260507034019 59 284 2.0 5.0 0.00 0.24 0.24 90 1005.7
20260507033519 59 273 1.0 4.0 0.00 0.24 0.24 90 1005.6
20260507033033 59 269 1.0 4.0 0.00 0.24 0.24 91 1005.7
20260507032521 59 264 1.0 6.0 0.00 0.24 0.24 91 1005.4
20260507032019 59 294 1.0 6.0 0.00 0.24 0.24 91 1005.2
20260507031533 59 269 0.0 5.0 0.00 0.24 0.24 91 1005.1
20260507031017 59 0 0.0 5.0 0.00 0.24 0.24 91 1005.1
20260507030519 59 289 1.0 5.0 0.00 0.24 0.24 91 1004.9
20260507030040 59 0 2.0 4.0 0.00 0.24 0.24 91 1004.7
20260507025518 59 315 1.0 5.0 0.00 0.24 0.24 91 1004.7
20260507025017 59 270 0.0 5.0 0.00 0.24 0.24 91 1004.8
20260507024535 59 176 1.0 5.0 0.00 0.24 0.24 91 1004.9
20260507024016 59 132 1.0 5.0 0.00 0.24 0.24 91 1004.9
20260507023518 59 296 1.0 5.0 0.00 0.24 0.24 91 1004.9
20260507023034 59 223 1.0 5.0 0.00 0.24 0.24 91 1005.0
20260507022519 59 244 1.0 5.0 0.00 0.24 0.24 91 1004.9
20260507022018 59 301 0.0 4.0 0.00 0.24 0.24 90 1004.8
20260507021531 59 309 1.0 5.0 0.00 0.24 0.24 91 1004.7
20260507021017 59 217 1.0 5.0 0.00 0.24 0.24 91 1004.7
20260507020517 59 301 1.0 9.0 0.00 0.24 0.24 91 1004.7
20260507020035 59 0 2.0 9.0 0.00 0.24 0.24 91 1004.7
20260507015518 59 0 0.0 5.0 0.00 0.24 0.24 91 1005.0
20260507015019 59 175 0.0 5.0 0.00 0.24 0.24 91 1004.9
20260507014537 59 210 1.0 6.0 0.00 0.24 0.24 91 1005.1
20260507014017 59 352 1.0 6.0 0.01 0.24 0.24 91 1005.0
20260507013518 59 245 1.0 6.0 0.01 0.24 0.24 91 1005.1
20260507013035 59 162 1.0 7.0 0.01 0.24 0.24 91 1004.9
20260507012521 59 150 2.0 7.0 0.01 0.24 0.24 91 1005.1
20260507012021 59 103 0.0 6.0 0.01 0.24 0.24 91 1005.0
20260507011535 59 352 1.0 5.0 0.01 0.24 0.24 90 1005.1
20260507011020 59 222 1.0 5.0 0.01 0.24 0.24 91 1005.2
20260507010523 59 181 1.0 7.0 0.01 0.24 0.24 91 1005.1
20260507010036 59 251 1.0 7.0 0.01 0.24 0.24 90 1005.3
20260507005524 59 15 1.0 4.0 0.01 0.24 0.24 90 1005.2
20260507005020 59 304 1.0 8.0 0.01 0.24 0.24 90 1005.1
20260507004532 59 288 2.0 8.0 0.01 0.24 0.24 90 1005.1
20260507004017 59 313 1.0 8.0 0.00 0.23 0.23 90 1005.1
20260507003516 59 86 1.0 8.0 0.00 0.23 0.23 90 1005.0
20260507003034 59 262 2.0 8.0 0.00 0.23 0.23 90 1005.0
20260507002516 59 126 1.0 7.0 0.00 0.23 0.23 90 1005.0
20260507002017 59 198 1.0 7.0 0.00 0.23 0.23 90 1005.0
20260507001536 59 115 2.0 7.0 0.01 0.23 0.23 90 1004.9
20260507001020 59 157 1.0 6.0 0.04 0.23 0.23 90 1004.8
20260507000518 59 221 2.0 7.0 0.05 0.23 0.23 90 1004.8